Location: Chequamegon National Forest
(46.1070°N, 90.8420°W)
Time: 20:44:28
(UTC-06:00)

ISS - All Passes

Search period start: 26 November 2014 00:00
Search period end: 06 December 2014 00:00
Orbit: 407 x 417 km, 51.6° (Epoch: 26 November)

Date Brightness Start Highest point End Pass type
(mag) Time Alt. Az. Time Alt. Az. Time Alt. Az.
26 Nov - 00:07:21 10° SW 00:10:37 69° SSE 00:13:54 10° ENE night (unlit)
26 Nov - 01:44:23 10° W 01:47:27 35° NNW 01:50:32 10° ENE night (unlit)
26 Nov - 03:21:37 10° WNW 03:24:38 32° N 03:27:39 10° ENE visible
26 Nov - 04:58:16 10° WNW 05:01:34 88° NNE 05:04:52 10° ESE visible
26 Nov - 06:35:46 10° W 06:37:49 16° SW 06:39:53 10° S visible
26 Nov - 23:17:47 10° SW 23:20:54 42° SE 23:24:02 10° ENE night (unlit)
27 Nov - 00:54:23 10° W 00:57:33 43° NNW 01:00:44 10° ENE night (unlit)
27 Nov - 02:31:44 10° WNW 02:34:42 30° N 02:37:39 10° ENE night (unlit)
27 Nov - 04:08:29 10° WNW 04:11:45 60° NNE 04:15:01 10° ESE visible
27 Nov - 05:45:25 10° W 05:48:12 25° SW 05:50:59 10° SSE visible
27 Nov - 22:28:25 10° SSW 22:31:12 25° SE 22:33:58 10° E night (unlit)
28 Nov - 00:04:24 10° WSW 00:07:39 59° NNW 00:10:55 10° ENE night (unlit)
28 Nov - 01:41:45 10° WNW 01:44:42 30° N 01:47:40 10° ENE night (unlit)
28 Nov - 03:18:40 10° WNW 03:21:50 44° NNE 03:25:01 10° E night (unlit)
28 Nov - 04:55:21 10° WNW 04:58:30 41° SW 05:01:37 10° SE visible
28 Nov - 21:39:28 10° S 21:41:31 16° SE 21:43:34 10° E night (unlit)
28 Nov - 23:14:28 10° WSW 23:17:45 88° NNW 23:21:04 10° ENE night (unlit)
29 Nov - 00:51:40 10° WNW 00:54:41 32° N 00:57:42 10° ENE night (unlit)
29 Nov - 02:28:47 10° WNW 02:31:51 35° NNE 02:34:56 10° E night (unlit)
29 Nov - 04:05:24 10° WNW 04:08:41 69° SSW 04:11:57 10° SE visible
29 Nov - 05:43:49 10° WSW 05:44:47 11° SW 05:45:45 10° SSW visible
29 Nov - 22:24:38 10° SW 22:27:52 58° SSE 22:31:07 10° ENE night (unlit)
30 Nov - 00:01:32 10° W 00:04:38 37° NNW 00:07:45 10° ENE night (unlit)
30 Nov - 01:38:49 10° WNW 01:41:48 31° N 01:44:48 10° ENE night (unlit)
30 Nov - 03:15:28 10° WNW 03:18:46 77° NNE 03:22:04 10° ESE night (unlit)
30 Nov - 04:52:43 10° W 04:55:05 18° SW 04:57:27 10° S visible
30 Nov - 21:34:59 10° SSW 21:38:01 35° SE 21:41:03 10° ENE night (unlit)
30 Nov - 23:11:23 10° W 23:14:36 48° NNW 23:17:48 10° ENE night (unlit)
01 Dec - 00:48:45 10° WNW 00:51:42 29° N 00:54:39 10° ENE night (unlit)
01 Dec - 02:25:32 10° WNW 02:28:47 53° NNE 02:32:01 10° E night (unlit)
01 Dec - 04:02:22 10° WNW 04:05:18 30° SW 04:08:13 10° SSE night (unlit)
01 Dec - 20:45:36 10° S 20:48:11 21° SE 20:50:46 10° E night (unlit)
01 Dec - 22:21:16 10° WSW 22:24:33 68° NNW 22:27:50 10° ENE night (unlit)
01 Dec - 23:58:35 10° WNW 00:01:33 30° N 00:04:32 10° ENE night (unlit)
02 Dec - 01:35:34 10° WNW 01:38:42 40° NNE 01:41:50 10° E night (unlit)
02 Dec - 03:12:12 10° WNW 03:15:24 50° SW 03:18:36 10° SE night (unlit)
02 Dec - 19:56:46 10° SSE 19:58:22 13° SE 19:59:58 10° ESE night (unlit)
02 Dec - 21:31:14 10° WSW 21:34:31 79° SSE 21:37:49 10° ENE night (unlit)
02 Dec - 23:08:20 10° WNW 23:11:23 34° N 23:14:26 10° ENE night (unlit)
03 Dec - 00:45:30 10° WNW 00:48:33 33° N 00:51:35 10° ENE night (unlit)
03 Dec - 02:22:07 10° WNW 02:25:25 81° SSW 02:28:43 10° ESE night (unlit)
03 Dec - 03:59:55 10° WSW 04:01:35 13° SW 04:03:15 10° SSW night (unlit)
03 Dec - 20:41:19 10° SW 20:44:30 48° SE 20:47:42 10° ENE night (unlit)
03 Dec - 22:18:03 10° W 22:21:12 40° NNW 22:24:21 10° ENE night (unlit)
03 Dec - 23:55:22 10° WNW 23:58:20 30° N 00:01:18 10° ENE night (unlit)
04 Dec - 01:32:03 10° WNW 01:35:21 67° NNE 01:38:37 10° ESE night (unlit)
04 Dec - 03:09:06 10° W 03:11:43 22° SW 03:14:20 10° S night (unlit)
04 Dec - 19:51:37 10° SSW 19:54:31 29° SE 19:57:26 10° ENE night (unlit)
04 Dec - 21:27:46 10° W 21:31:00 54° NNW 21:34:15 10° ENE night (unlit)
04 Dec - 23:05:07 10° WNW 23:08:04 29° N 23:11:02 10° ENE night (unlit)
05 Dec - 00:41:58 10° WNW 00:45:10 47° NNE 00:48:22 10° E night (unlit)
05 Dec - 02:18:42 10° WNW 02:21:45 36° SW 02:24:48 10° SSE night (unlit)
05 Dec - 19:02:14 10° S 19:04:33 18° SE 19:06:52 10° E visible
05 Dec - 20:37:32 10° WSW 20:40:50 79° NNW 20:44:08 10° ENE night (unlit)
05 Dec - 22:14:47 10° WNW 22:17:47 31° N 22:20:46 10° ENE night (unlit)
05 Dec - 23:51:49 10° WNW 23:54:56 37° NNE 23:58:01 10° E night (unlit)
